Location: Pasadena-CA
(34.1440°N, 118.1100°W)
Time: 06:59:38
(UTC-07:00)

NOAA 19 - Pass Details

Date: 26 June 2022
Orbit: 840 x 861 km, 99.1° (Epoch: 15 August)

Event Time Altitude Azimuth Distance (km) Brightness Sun altitude
Rises 21:43:29 0° 218° (SW) 3,421 8.3 -16.6°
Reaches altitude 10° 21:48:02 10° 253° (WSW) 2,488 8.0 -17.3°
Maximum altitude 21:49:28 11° 268° (W) 2,420 8.2 -17.5°
Drops below altitude 10° 21:50:54 10° 284° (WNW) 2,490 8.5 -17.7°
Sets 21:55:29 0° 319° (NW) 3,427 10.1 -18.4°
